Temperature
3 3 3 2 2 2 1 1 -1 -2 -1 -0 0 1 1 1 1 0 0 0 -0 -1 -1 -1 -1 -2 -2 -2 -2 -2 -2 -2 -2 -2 -2 -2 -2 -2
3 3 2 2 2 1 1 0 -0 -1 -2 -1 -1 -0 -0 -0 -0 -1 -1 -1 -1 -2 -2 -2 -2 -2 -2 -2 -2 -2 -2 -2 -2 -2 -2 -2 -2 -2
3 2 2 2 1 1 0 -0 -1 -2 -3 -1 -2 -2 -2 -1 -1 -1 -1 -2 -2 -2 -3 -3 -3 -3 -3 -3 -3 -3 -3 -3 -3 -3 -3 -2 -3 -2
2 2 1 1 1 0 -0 -1 -1 -2 -2 -2 -2 -3 -2 -2 -2 -2 -3 -3 -3 -3 -3 -4 -4 -4 -4 -3 -3 -3 -3 -3 -3 -3 -3 -3 -3 -3
1 1 1 0 0 -0 -1 -1 -1 -2 -2 -3 -3 -3 -3 -3 -4 -3 -3 -3 -4 -4 -4 -4 -5 -5 -4 -4 -4 -4 -4 -4 -4 -4 -4 -4 -3 -3
0 0 0 -0 -0 -1 -1 -1 -2 -2 -3 -4 -4 -4 -4 -4 -5 -5 -4 -4 -4 -4 -5 -5 -5 -5 -5 -5 -4 -4 -4 -4 -4 -4 -4 -4 -4 -4
-0 -1 -1 -1 -1 -1 -2 -2 -2 -3 -3 -4 -4 -5 -5 -5 -5 -5 -5 -5 -5 -5 -6 -6 -6 -6 -5 -5 -5 -5 -5 -4 -4 -4 -4 -4 -5 -5
-1 -1 -1 -2 -2 -2 -2 -3 -3 -3 -3 -4 -4 -5 -5 -5 -5 -5 -6 -6 -7 -6 -6 -6 -6 -6 -5 -5 -5 -5 -5 -5 -5 -5 -5 -5 -5 -5
-2 -2 -2 -2 -2 -2 -3 -3 -3 -3 -3 -3 -4 -4 -4 -4 -5 -5 -6 -6 -6 -6 -6 -6 -6 -6 -6 -5 -5 -5 -5 -5 -5 -5 -5 -6 -6 -6
-3 -3 -3 -3 -3 -3 -3 -3 -3 -3 -3 -3 -4 -4 -4 -4 -5 -5 -5 -6 -6 -6 -7 -7 -6 -6 -6 -6 -5 -6 -6 -6 -6 -6 -6 -6 -6 -6
-3 -3 -3 -3 -3 -3 -4 -4 -4 -4 -4 -4 -4 -4 -4 -5 -5 -5 -6 -7 -7 -7 -7 -7 -7 -6 -6 -6 -6 -6 -6 -6 -6 -6 -6 -7 -7 -7
-3 -3 -3 -3 -4 -4 -4 -4 -4 -4 -4 -4 -4 -5 -5 -5 -5 -5 -6 -6 -7 -7 -7 -7 -7 -7 -7 -6 -6 -6 -6 -6 -6 -6 -6 -7 -7 -7
-4 -4 -3 -4 -4 -4 -4 -4 -4 -4 -4 -4 -5 -5 -5 -5 -5 -6 -6 -6 -7 -7 -7 -7 -7 -7 -8 -7 -6 -6 -6 -6 -6 -6 -6 -7 -7 -8
-4 -4 -4 -4 -4 -4 -4 -4 -4 -4 -4 -5 -5 -5 -5 -5 -6 -6 -6 -6 -6 -7 -7 -7 -7 -7 -8 -8 -8 -7 -7 -7 -7 -7 -7 -7 -7 -8
-4 -4 -4 -4 -4 -4 -4 -4 -5 -5 -5 -5 -5 -5 -5 -5 -6 -6 -6 -7 -7 -7 -7 -7 -7 -7 -8 -8 -8 -8 -8 -8 -8 -8 -7 -8 -8 -8
-4 -4 -4 -4 -4 -4 -5 -5 -5 -5 -5 -5 -5 -5 -6 -6 -6 -6 -6 -7 -7 -7 -7 -7 -7 -8 -8 -8 -9 -9 -9 -9 -8 -8 -9 -9 -9 -9
-4 -4 -4 -4 -4 -5 -5 -5 -5 -6 -6 -6 -6 -6 -6 -6 -6 -6 -7 -7 -7 -7 -7 -7 -8 -8 -8 -9 -9 -9 -9 -9 -9 -9 -10 -10 -10 -10
-4 -4 -5 -5 -5 -5 -5 -5 -6 -6 -6 -6 -6 -6 -6 -6 -6 -7 -7 -7 -7 -7 -7 -7 -8 -8 -9 -9 -9 -9 -9 -9 -9 -10 -11 -11 -11 -10
-5 -5 -5 -5 -5 -5 -6 -6 -6 -6 -6 -6 -6 -6 -7 -7 -7 -7 -7 -8 -8 -8 -8 -8 -8 -9 -11 -11 -9 -9 -10 -10 -10 -11 -11 -11 -11 -11
-5 -5 -5 -6 -6 -6 -6 -6 -6 -6 -6 -6 -7 -7 -7 -7 -7 -7 -8 -8 -8 -8 -9 -8 -9 -9 -10 -10 -10 -10 -10 -11 -11 -11 -11 -12 -12 -12
-6 -6 -6 -6 -6 -6 -6 -6 -6 -6 -7 -7 -7 -7 -7 -7 -8 -8 -8 -8 -9 -9 -9 -9 -9 -9 -10 -11 -12 -11 -10 -10 -11 -12 -12 -12 -12 -12
-6 -6 -6 -6 -6 -6 -6 -6 -6 -7 -7 -7 -7 -7 -7 -8 -8 -8 -8 -9 -9 -9 -9 -9 -9 -10 -11 -11 -12 -11 -11 -11 -11 -11 -12 -12 -12 -12
-6 -6 -6 -6 -6 -6 -7 -7 -7 -7 -7 -7 -7 -8 -8 -8 -8 -9 -9 -9 -10 -10 -10 -10 -10 -10 -11 -11 -12 -12 -12 -12 -12 -12 -12 -11 -12 -12
Wind_Speed
17 18 17 15 14 14 13 13 13 14 14 9 9 10 14 18 24 23 22 29 32 32 33 33 33 32 31 30 29 28 27 26 26 26 26 26 26 26
14 16 18 15 14 13 14 14 14 16 16 6 8 7 11 12 22 22 22 29 31 32 32 32 32 32 31 31 30 29 29 28 27 28 28 28 28 27
15 16 19 16 15 14 14 14 15 15 21 16 8 9 12 12 12 15 20 20 21 29 31 31 32 31 31 31 31 30 30 29 29 29 29 29 29 28
16 16 18 15 18 15 15 16 16 16 18 23 10 8 12 12 12 11 12 16 17 27 30 31 31 31 31 31 31 31 30 30 29 29 29 29 29 29
15 16 17 16 18 15 16 16 15 16 16 18 16 8 9 8 10 10 13 11 13 22 27 30 31 31 32 32 32 31 30 30 30 30 30 30 29 29
14 15 15 16 17 17 16 17 15 15 15 16 16 10 8 6 7 10 11 10 12 13 19 22 25 29 31 32 31 30 30 30 30 30 30 29 29 29
14 14 15 19 22 19 15 13 14 14 14 15 16 12 11 7 9 9 13 10 11 11 10 11 11 12 13 24 28 29 29 29 29 29 29 29 29 29
14 13 14 18 22 27 29 27 22 18 17 16 16 16 13 13 11 11 11 10 10 8 11 13 11 12 10 11 23 27 27 27 28 28 28 29 29 30
12 12 12 12 19 14 20 26 25 29 27 19 19 18 14 13 13 14 13 11 13 7 8 10 9 12 10 16 25 27 28 28 28 29 29 30 30 31
12 12 13 13 13 14 13 14 15 16 18 15 14 14 13 11 13 15 14 13 9 7 9 8 7 10 11 10 23 26 27 27 28 29 30 30 31 32
12 12 13 13 20 23 15 14 15 14 19 24 23 20 22 23 18 12 12 11 11 10 10 8 6 8 9 10 15 25 26 27 27 28 29 29 30 30
10 11 18 18 21 22 14 13 15 13 11 11 14 16 14 16 22 16 13 12 7 7 9 9 7 6 6 7 10 10 14 22 26 27 28 28 29 19
11 9 10 20 22 22 19 12 16 14 10 10 10 9 8 8 9 9 11 11 10 7 7 9 7 7 7 4 5 8 10 11 12 16 23 28 29 24
11 10 11 20 21 21 17 15 19 16 7 7 8 8 8 8 8 8 10 11 10 9 8 8 7 8 8 9 7 6 7 9 11 13 12 20 24 29
11 18 20 21 20 14 16 18 14 7 6 7 8 8 8 8 7 6 7 8 9 9 9 9 9 8 9 10 9 8 7 9 11 13 13 14 14 15
13 16 20 20 14 13 12 9 5 6 7 7 7 6 6 6 7 7 7 6 6 7 8 11 12 11 10 12 11 11 11 8 7 10 13 14 14 15
13 8 6 6 6 6 5 5 5 5 6 5 5 5 6 7 7 7 6 6 6 6 6 6 8 10 11 10 11 13 13 13 13 13 13 16 16 16
15 7 7 7 7 6 6 5 5 6 5 5 5 5 6 6 6 5 5 6 7 7 7 6 4 4 5 9 16 16 14 14 13 13 14 17 19 16
9 7 7 7 6 6 5 5 5 5 4 5 5 5 5 5 5 6 6 6 7 7 7 6 6 7 10 12 9 16 15 14 13 13 14 17 20 18
6 7 8 7 5 5 5 5 5 4 4 4 5 5 5 5 5 6 6 7 7 7 7 7 8 10 12 13 10 9 17 16 14 16 16 16 19 24
7 7 6 6 5 5 4 4 4 4 4 4 4 5 5 5 5 6 6 10 9 7 9 9 10 15 10 9 12 12 11 19 21 17 16 16 19 19
7 7 6 5 4 4 4 3 3 3 4 4 4 4 4 5 6 6 6 6 7 8 10 9 8 8 8 12 16 17 15 13 19 28 30 28 20 17
7 6 5 5 4 3 3 3 4 3 4 4 4 4 4 5 5 6 6 7 8 9 9 9 8 8 10 12 15 16 18 17 15 15 17 25 32 36
Wind_Direction
239 237 238 239 235 234 233 230 241 264 268 224 211 214 219 224 231 235 234 241 245 246 245 244 244 245 246 247 248 250 252 254 256 257 257 258 259 260
241 240 239 240 238 234 233 232 231 242 263 240 210 201 211 223 231 232 232 239 245 247 247 246 245 245 246 247 247 249 250 252 254 255 256 256 257 258
245 242 242 238 239 236 233 233 233 234 252 260 214 205 207 220 231 230 229 234 240 245 247 248 246 246 246 246 247 248 249 252 253 254 255 256 257 258
249 246 246 242 239 238 235 234 234 231 241 258 248 213 217 218 223 227 229 232 232 241 247 248 248 248 248 248 248 248 249 251 252 254 255 256 257 259
252 248 248 243 244 240 236 237 236 236 236 249 255 226 223 218 223 231 234 234 232 239 245 248 249 250 250 249 247 248 249 250 251 252 253 255 257 259
254 251 249 244 244 242 240 238 236 236 236 243 252 242 227 205 210 225 235 231 236 235 240 243 247 250 250 249 248 249 250 250 250 251 252 253 256 258
256 251 249 249 248 247 244 239 233 236 236 241 247 246 233 211 217 217 233 232 232 227 232 238 242 245 246 250 250 251 250 250 250 251 253 255 257 259
261 256 252 257 259 259 256 249 236 231 232 235 241 241 236 224 220 221 226 229 238 211 223 234 228 236 237 237 246 249 251 252 252 252 253 256 258 259
263 263 262 258 261 251 257 259 256 248 237 230 236 238 234 222 218 222 221 222 229 203 198 230 224 232 233 237 242 244 246 248 251 252 254 256 257 259
266 263 262 260 255 255 248 248 250 254 254 248 241 238 231 223 216 220 222 228 233 219 202 227 221 230 232 230 242 244 246 247 250 252 254 256 258 259
269 263 262 260 264 267 259 251 251 249 255 254 250 245 237 231 221 217 218 223 231 225 208 219 224 229 232 234 238 243 247 249 251 253 255 257 259 260
274 265 269 270 270 269 260 253 255 251 240 247 252 255 249 240 233 217 211 217 219 220 201 205 214 208 237 232 229 234 243 250 253 255 257 259 261 262
282 278 269 277 278 274 269 257 257 254 236 233 235 236 235 231 231 225 212 215 219 219 193 190 203 205 221 235 225 224 229 238 247 253 257 259 260 260
286 282 275 279 278 275 272 266 267 265 241 228 229 226 223 223 221 218 217 219 221 221 198 189 202 209 224 243 249 231 225 232 239 247 247 254 259 260
284 284 285 286 286 280 275 275 276 265 239 235 230 225 218 214 206 207 212 218 225 227 219 209 215 220 225 241 250 249 251 247 242 246 249 249 250 252
289 286 288 287 283 279 274 273 266 257 250 241 232 221 206 200 205 204 209 209 221 232 223 218 218 220 232 240 247 253 250 249 240 241 249 253 252 249
292 280 274 274 264 259 253 251 246 251 253 238 225 215 208 206 210 204 204 201 210 223 230 224 223 226 231 236 246 251 254 255 253 253 255 259 257 252
304 291 285 276 267 258 253 251 242 239 235 226 219 213 212 211 207 199 199 206 221 230 234 231 218 228 247 249 237 250 254 256 256 252 253 260 264 257
302 289 284 278 268 256 248 246 245 235 222 219 219 215 210 208 205 207 208 215 228 234 237 228 218 229 253 265 243 231 244 256 258 258 255 257 263 264
284 282 281 276 266 255 248 246 242 231 223 221 219 213 207 207 211 213 214 219 230 238 245 239 230 231 243 260 267 255 250 253 260 263 264 264 265 268
293 288 282 274 265 258 252 245 235 230 225 217 217 212 208 209 219 222 223 236 241 243 248 250 246 250 255 262 268 264 251 253 256 261 267 270 271 270
293 290 285 275 266 258 251 243 231 224 218 217 219 216 213 214 224 227 230 239 244 247 254 261 260 259 253 260 267 274 275 266 263 266 265 263 266 268
297 292 286 280 267 253 242 232 226 226 221 221 224 223 219 224 229 233 238 244 251 257 262 269 268 260 259 261 268 274 276 278 277 273 268 265 264 265
Height
1438 1436 1434 1432 1432 1431 1430 1430 1429 1420 1412 1412 1416 1418 1422 1424 1425 1426 1426 1428 1430 1431 1433 1436 1438 1440 1443 1445 1447 1449 1451 1453 1455 1456 1458 1460 1461 1463
1427 1424 1422 1421 1420 1419 1418 1418 1417 1413 1404 1397 1403 1407 1410 1411 1413 1414 1415 1417 1418 1419 1421 1424 1426 1429 1431 1434 1436 1438 1440 1442 1444 1446 1448 1450 1451 1453
1416 1413 1410 1410 1408 1406 1406 1405 1404 1403 1396 1387 1393 1395 1398 1400 1402 1403 1404 1405 1406 1408 1410 1412 1415 1417 1420 1422 1424 1427 1429 1431 1433 1435 1437 1439 1441 1443
1404 1402 1399 1398 1395 1395 1394 1392 1391 1390 1388 1380 1381 1384 1385 1388 1390 1392 1393 1393 1394 1396 1398 1400 1403 1405 1408 1410 1413 1415 1417 1420 1422 1424 1426 1428 1430 1432
1393 1390 1388 1387 1383 1382 1381 1379 1379 1379 1377 1373 1369 1373 1375 1376 1378 1379 1381 1382 1382 1384 1386 1388 1391 1393 1396 1398 1401 1404 1406 1408 1411 1413 1415 1417 1419 1421
1382 1379 1377 1375 1372 1371 1369 1367 1367 1367 1366 1364 1361 1362 1364 1364 1367 1367 1368 1369 1370 1373 1374 1376 1378 1381 1383 1386 1390 1392 1395 1397 1399 1402 1404 1406 1408 1409
1370 1368 1366 1364 1361 1360 1357 1355 1356 1355 1354 1353 1351 1351 1352 1353 1353 1355 1356 1358 1359 1361 1363 1364 1367 1368 1371 1374 1378 1380 1383 1385 1388 1390 1392 1394 1396 1398
1359 1356 1355 1353 1351 1349 1347 1346 1345 1343 1341 1341 1340 1339 1339 1342 1344 1345 1347 1348 1348 1350 1352 1353 1356 1356 1359 1363 1366 1369 1371 1374 1376 1378 1380 1382 1384 1386
1349 1346 1344 1342 1340 1338 1336 1335 1335 1334 1333 1331 1328 1327 1330 1332 1335 1336 1336 1336 1338 1341 1343 1343 1346 1346 1349 1352 1355 1358 1360 1362 1365 1367 1369 1370 1372 1373
1340 1337 1334 1331 1330 1328 1325 1323 1322 1322 1323 1322 1320 1319 1321 1323 1325 1326 1327 1329 1330 1333 1334 1334 1336 1338 1341 1342 1345 1347 1349 1352 1354 1356 1357 1359 1360 1361
1330 1328 1325 1321 1320 1318 1316 1313 1311 1310 1311 1311 1311 1311 1312 1314 1316 1317 1318 1320 1320 1322 1325 1326 1327 1330 1331 1332 1335 1337 1339 1341 1343 1344 1346 1347 1348 1348
1321 1318 1316 1313 1311 1309 1307 1304 1302 1301 1302 1301 1302 1302 1304 1305 1307 1308 1309 1311 1311 1313 1315 1318 1319 1322 1322 1322 1325 1327 1329 1330 1332 1333 1333 1334 1335 1335
1313 1310 1307 1305 1303 1301 1299 1297 1295 1294 1293 1293 1293 1293 1294 1296 1298 1300 1301 1302 1304 1305 1308 1310 1312 1313 1314 1313 1314 1316 1317 1318 1319 1319 1320 1321 1321 1321
1306 1303 1299 1297 1295 1293 1291 1289 1288 1287 1286 1286 1285 1285 1286 1288 1289 1292 1294 1295 1297 1299 1301 1303 1304 1305 1305 1305 1305 1305 1306 1307 1307 1306 1306 1306 1306 1306
1299 1295 1292 1290 1287 1285 1283 1282 1281 1280 1279 1279 1278 1279 1280 1281 1283 1285 1286 1288 1290 1291 1293 1294 1295 1296 1297 1296 1295 1295 1295 1294 1294 1293 1292 1291 1290 1290
1291 1287 1285 1282 1280 1277 1276 1275 1274 1273 1272 1272 1272 1273 1274 1275 1276 1278 1279 1281 1282 1283 1285 1286 1287 1287 1287 1286 1286 1284 1284 1282 1280 1280 1279 1277 1275 1274
1284 1280 1277 1274 1272 1270 1269 1268 1267 1266 1266 1266 1266 1267 1268 1269 1270 1272 1273 1274 1274 1275 1276 1278 1278 1278 1277 1277 1275 1272 1271 1270 1269 1268 1266 1262 1259 1259
1277 1273 1271 1268 1266 1264 1263 1262 1261 1260 1260 1261 1261 1262 1263 1263 1264 1265 1266 1267 1267 1267 1268 1269 1270 1269 1267 1265 1264 1261 1260 1258 1256 1255 1253 1249 1243 1243
1271 1267 1265 1262 1260 1258 1257 1256 1256 1255 1255 1256 1256 1257 1257 1258 1259 1259 1260 1260 1260 1260 1260 1260 1260 1259 1257 1253 1251 1252 1249 1246 1244 1242 1239 1235 1229 1226
1266 1262 1259 1257 1255 1254 1253 1252 1251 1251 1251 1251 1251 1252 1252 1253 1253 1253 1253 1253 1253 1252 1251 1251 1250 1249 1247 1243 1239 1238 1239 1235 1232 1228 1225 1221 1215 1212
1260 1258 1255 1252 1251 1249 1249 1248 1247 1247 1247 1247 1247 1247 1247 1247 1247 1247 1247 1246 1246 1244 1243 1241 1241 1241 1238 1234 1229 1223 1223 1223 1220 1216 1212 1208 1202 1197
1256 1253 1251 1249 1247 1246 1245 1244 1244 1243 1243 1243 1243 1243 1242 1242 1241 1241 1240 1239 1238 1237 1235 1233 1232 1231 1228 1224 1217 1212 1208 1207 1205 1203 1199 1196 1191 1181
1252 1249 1247 1245 1243 1242 1241 1241 1240 1240 1239 1239 1238 1238 1237 1237 1236 1235 1234 1233 1231 1229 1227 1224 1222 1220 1216 1212 1207 1201 1196 1193 1189 1185 1180 1178 1175 1169